TimeEDT,TemperatureF,Dew PointF,Humidity,Sea Level PressureIn,VisibilityMPH,Wind Direction,Wind SpeedMPH,Gust SpeedMPH,PrecipitationIn,Events,Conditions,WindDirDegrees,DateUTC
12:53 AM,77.0,75.0,94,30.02,10.0,ENE,5.8,-,N/A,,Clear,70,2013-10-03 04:53:00
1:53 AM,77.0,73.0,88,30.00,10.0,ENE,5.8,-,N/A,,Clear,70,2013-10-03 05:53:00
2:53 AM,75.9,73.0,91,29.97,10.0,ENE,6.9,-,N/A,,Clear,60,2013-10-03 06:53:00
3:53 AM,75.0,72.0,90,29.95,10.0,ENE,8.1,-,N/A,,Clear,60,2013-10-03 07:53:00
4:53 AM,75.0,72.0,90,29.94,10.0,ENE,6.9,-,N/A,,Clear,60,2013-10-03 08:53:00
5:53 AM,73.9,72.0,93,29.96,10.0,ENE,3.5,-,N/A,,Clear,70,2013-10-03 09:53:00
6:53 AM,73.9,72.0,93,29.98,9.0,ENE,5.8,-,N/A,,Clear,70,2013-10-03 10:53:00
7:53 AM,73.9,73.0,97,29.99,8.0,ENE,5.8,-,N/A,,Partly Cloudy,60,2013-10-03 11:53:00
8:53 AM,78.1,73.9,87,30.02,10.0,East,8.1,-,N/A,,Clear,80,2013-10-03 12:53:00
9:53 AM,82.0,75.0,79,30.04,10.0,East,9.2,-,N/A,,Partly Cloudy,80,2013-10-03 13:53:00
10:53 AM,84.9,75.0,72,30.04,10.0,ESE,10.4,-,N/A,,Partly Cloudy,120,2013-10-03 14:53:00
11:53 AM,87.1,75.0,67,30.04,10.0,SE,8.1,-,N/A,,Scattered Clouds,130,2013-10-03 15:53:00
12:53 PM,88.0,75.0,65,30.03,10.0,North,5.8,-,N/A,,Overcast,360,2013-10-03 16:53:00
1:53 PM,84.9,75.0,72,30.00,10.0,NNW,9.2,-,N/A,,Mostly Cloudy,340,2013-10-03 17:53:00
2:53 PM,84.0,75.0,74,30.00,10.0,Calm,Calm,-,N/A,,Overcast,0,2013-10-03 18:53:00
3:25 PM,80.6,73.4,79,30.01,10.0,East,8.1,-,N/A,,Overcast,80,2013-10-03 19:25:00
3:32 PM,78.8,73.4,83,30.01,10.0,ESE,17.3,20.7,N/A,Thunderstorm,Overcast,110,2013-10-03 19:32:00
3:35 PM,78.8,73.4,83,30.00,1.8,East,20.7,24.2,0.18,Rain-Thunderstorm,Light Rain,100,2013-10-03 19:35:00
3:38 PM,75.2,73.4,94,30.00,0.5,ESE,20.7,34.5,0.39,Fog-Rain-Thunderstorm,Heavy Rain,110,2013-10-03 19:38:00
3:43 PM,75.2,73.4,94,30.01,0.2,SE,23.0,34.5,0.52,Fog-Rain,Heavy Rain,130,2013-10-03 19:43:00
3:53 PM,75.0,73.9,96,30.00,0.2,South,13.8,-,0.93,Fog-Rain-Thunderstorm,Heavy Thunderstorms and Rain,170,2013-10-03 19:53:00
3:55 PM,75.2,73.4,94,30.00,0.5,South,12.7,-,0.03,Fog-Rain-Thunderstorm,Heavy Thunderstorms and Rain,170,2013-10-03 19:55:00
3:57 PM,75.2,73.4,94,30.00,1.0,South,13.8,-,0.04,Rain-Thunderstorm,Heavy Thunderstorms and Rain,170,2013-10-03 19:57:00
4:10 PM,75.2,71.6,89,30.00,7.0,SSE,8.1,-,0.07,Rain-Thunderstorm,Light Thunderstorms and Rain,160,2013-10-03 20:10:00
4:17 PM,75.2,73.4,94,30.00,6.0,East,5.8,-,0.07,Rain,Light Rain,100,2013-10-03 20:17:00
4:53 PM,75.9,73.9,94,29.99,6.0,East,4.6,-,0.08,Rain,Light Rain,80,2013-10-03 20:53:00
5:53 PM,78.1,75.9,93,30.00,10.0,ENE,8.1,-,0.02,,Mostly Cloudy,60,2013-10-03 21:53:00
6:53 PM,78.1,73.9,87,30.00,10.0,East,3.5,-,N/A,,Scattered Clouds,80,2013-10-03 22:53:00
7:53 PM,77.0,75.0,94,30.01,10.0,East,3.5,-,N/A,,Partly Cloudy,80,2013-10-03 23:53:00
8:53 PM,77.0,75.0,94,30.01,10.0,Calm,Calm,-,N/A,,Clear,0,2013-10-04 00:53:00
9:53 PM,75.9,75.0,97,30.02,10.0,ENE,3.5,-,N/A,,Clear,60,2013-10-04 01:53:00
10:53 PM,75.9,75.0,97,30.04,10.0,East,4.6,-,N/A,,Clear,80,2013-10-04 02:53:00